| time (UTC) | temp C | wind direction | speed KPH | gust KPH | rain 1hr cm | rain 24hr cm | rain mn cm | humidity % | barometer mb |
| 20260505050927 | 16 | 98 | 0.0 | 1.6 | 0.00 | 0.00 | 0.00 | 81 | 1018.6 |
| 20260505050425 | 16 | 111 | 0.0 | 3.2 | 0.00 | 0.00 | 0.00 | 81 | 1018.7 |
| 20260505041353 | 16 | 99 | 0.0 | 0.0 | 0.00 | 0.00 | 0.00 | 79 | 1018.6 |
| 20260505040850 | 16 | 99 | 0.0 | 1.6 | 0.00 | 0.00 | 0.00 | 79 | 1018.9 |
| 20260505040348 | 16 | 90 | 0.0 | 1.6 | 0.00 | 0.00 | 0.00 | 78 | 1018.9 |
| 20260505035844 | 16 | 90 | 0.0 | 1.6 | 0.00 | 0.00 | 0.00 | 78 | 1018.8 |
| 20260505035340 | 16 | 90 | 0.0 | 0.0 | 0.00 | 0.00 | 0.00 | 78 | 1018.9 |
| 20260505034837 | 17 | 81 | 0.0 | 1.6 | 0.00 | 0.00 | 0.00 | 77 | 1018.9 |
| 20260505034334 | 17 | 106 | 0.0 | 0.0 | 0.00 | 0.00 | 0.00 | 77 | 1018.7 |
| 20260505033831 | 17 | 106 | 0.0 | 0.0 | 0.00 | 0.00 | 0.00 | 76 | 1018.9 |
| 20260505033328 | 17 | 90 | 0.0 | 0.0 | 0.00 | 0.00 | 0.00 | 75 | 1018.7 |
| 20260505032826 | 17 | 90 | 0.0 | 0.0 | 0.00 | 0.00 | 0.00 | 75 | 1018.7 |
| 20260505032322 | 17 | 90 | 0.0 | 0.0 | 0.00 | 0.00 | 0.00 | 75 | 1018.8 |
| 20260505031820 | 17 | 90 | 0.0 | 0.0 | 0.00 | 0.00 | 0.00 | 75 | 1018.7 |
| 20260505031316 | 18 | 140 | 0.0 | 0.0 | 0.00 | 0.00 | 0.00 | 74 | 1018.8 |
| 20260505030813 | 18 | 106 | 0.0 | 0.0 | 0.00 | 0.00 | 0.00 | 74 | 1019.0 |
| 20260505030310 | 18 | 106 | 0.0 | 0.0 | 0.00 | 0.00 | 0.00 | 74 | 1019.0 |
| 20260505025804 | 18 | 106 | 0.0 | 0.0 | 0.00 | 0.00 | 0.00 | 74 | 1018.8 |
| 20260505025304 | 18 | 106 | 0.0 | 0.0 | 0.00 | 0.00 | 0.00 | 74 | 1018.9 |
| 20260505024801 | 18 | 99 | 0.0 | 1.6 | 0.00 | 0.00 | 0.00 | 74 | 1018.7 |
| 20260505024258 | 18 | 96 | 0.0 | 3.2 | 0.00 | 0.00 | 0.00 | 73 | 1018.5 |
| 20260505023755 | 18 | 98 | 1.6 | 1.6 | 0.00 | 0.00 | 0.00 | 74 | 1018.6 |
| 20260505023252 | 18 | 90 | 0.0 | 1.6 | 0.00 | 0.00 | 0.00 | 73 | 1018.6 |
| 20260505022749 | 18 | 99 | 0.0 | 1.6 | 0.00 | 0.00 | 0.00 | 73 | 1018.7 |
| 20260505022246 | 18 | 98 | 1.6 | 1.6 | 0.00 | 0.00 | 0.00 | 73 | 1018.5 |
| 20260505021743 | 18 | 97 | 0.0 | 0.0 | 0.00 | 0.00 | 0.00 | 73 | 1018.7 |
| 20260505021240 | 19 | 126 | 0.0 | 3.2 | 0.00 | 0.00 | 0.00 | 73 | 1018.6 |
| 20260505020735 | 19 | 98 | 1.6 | 1.6 | 0.00 | 0.00 | 0.00 | 73 | 1018.6 |
| 20260505020231 | 19 | 114 | 0.0 | 1.6 | 0.00 | 0.00 | 0.00 | 73 | 1018.4 |
| 20260505015729 | 19 | 106 | 1.6 | 3.2 | 0.00 | 0.00 | 0.00 | 73 | 1018.6 |
| 20260505015225 | 19 | 117 | 3.2 | 3.2 | 0.00 | 0.00 | 0.00 | 72 | 1018.7 |
| 20260505014722 | 20 | 107 | 0.0 | 3.2 | 0.00 | 0.00 | 0.00 | 72 | 1018.4 |
| 20260505014220 | 20 | 126 | 1.6 | 3.2 | 0.00 | 0.00 | 0.00 | 72 | 1018.5 |
| 20260505013716 | 20 | 188 | 0.0 | 6.4 | 0.00 | 0.00 | 0.00 | 72 | 1018.5 |
| 20260505013213 | 20 | 111 | 0.0 | 1.6 | 0.00 | 0.00 | 0.00 | 72 | 1018.4 |
| 20260505012712 | 20 | 165 | 0.0 | 3.2 | 0.00 | 0.00 | 0.00 | 71 | 1018.4 |
| 20260505012209 | 20 | 168 | 0.0 | 1.6 | 0.00 | 0.00 | 0.00 | 71 | 1018.6 |
| 20260505011704 | 20 | 90 | 0.0 | 1.6 | 0.00 | 0.00 | 0.00 | 71 | 1018.5 |
| 20260505011202 | 20 | 103 | 1.6 | 3.2 | 0.00 | 0.00 | 0.00 | 71 | 1018.4 |
| 20260505010657 | 20 | 109 | 0.0 | 3.2 | 0.00 | 0.00 | 0.00 | 70 | 1018.3 |
| 20260505010154 | 20 | 117 | 0.0 | 4.8 | 0.00 | 0.00 | 0.00 | 70 | 1018.3 |
| 20260505005650 | 20 | 109 | 0.0 | 3.2 | 0.00 | 0.00 | 0.00 | 70 | 1018.2 |
| 20260505005147 | 20 | 109 | 1.6 | 3.2 | 0.00 | 0.00 | 0.00 | 69 | 1018.4 |
| 20260505004644 | 21 | 98 | 0.0 | 3.2 | 0.00 | 0.00 | 0.00 | 69 | 1018.3 |
| 20260505004141 | 21 | 98 | 1.6 | 8.0 | 0.00 | 0.00 | 0.00 | 68 | 1018.2 |
| 20260505003638 | 21 | 117 | 1.6 | 4.8 | 0.00 | 0.00 | 0.00 | 68 | 1018.2 |
| 20260505003136 | 21 | 114 | 1.6 | 3.2 | 0.00 | 0.00 | 0.00 | 67 | 1018.0 |
| 20260505002631 | 21 | 90 | 1.6 | 6.4 | 0.00 | 0.00 | 0.00 | 67 | 1018.0 |
| 20260505002130 | 21 | 97 | 1.6 | 8.0 | 0.00 | 0.00 | 0.00 | 67 | 1018.1 |
| 20260505001626 | 21 | 180 | 1.6 | 9.7 | 0.00 | 0.00 | 0.00 | 67 | 1017.8 |
| 20260505001124 | 21 | 105 | 3.2 | 3.2 | 0.00 | 0.00 | 0.00 | 67 | 1018.0 |
| 20260505000621 | 21 | 114 | 3.2 | 4.8 | 0.00 | 0.00 | 0.00 | 66 | 1017.9 |
| 20260505000119 | 22 | 109 | 1.6 | 3.2 | 0.00 | 0.00 | 0.00 | 66 | 1017.9 |
| 20260504235615 | 22 | 157 | 3.2 | 3.2 | 0.00 | 0.00 | 0.00 | 65 | 1018.0 |
| 20260504235112 | 22 | 129 | 3.2 | 8.0 | 0.00 | 0.00 | 0.00 | 65 | 1017.6 |
| 20260504234609 | 22 | 106 | 3.2 | 8.0 | 0.00 | 0.00 | 0.00 | 64 | 1017.4 |
| 20260504234106 | 22 | 90 | 1.6 | 6.4 | 0.00 | 0.00 | 0.00 | 63 | 1017.4 |
| 20260504233601 | 23 | 100 | 3.2 | 6.4 | 0.00 | 0.00 | 0.00 | 63 | 1017.7 |
| 20260504233058 | 23 | 97 | 1.6 | 4.8 | 0.00 | 0.00 | 0.00 | 62 | 1017.7 |
| 20260504232555 | 23 | 161 | 4.8 | 6.4 | 0.00 | 0.00 | 0.00 | 62 | 1017.4 |
| 20260504232053 | 23 | 113 | 3.2 | 8.0 | 0.00 | 0.00 | 0.00 | 61 | 1017.6 |
| 20260504231549 | 23 | 129 | 3.2 | 9.7 | 0.00 | 0.00 | 0.00 | 61 | 1017.6 |
| 20260504231045 | 23 | 90 | 3.2 | 6.4 | 0.00 | 0.00 | 0.00 | 59 | 1017.6 |
| 20260504230541 | 24 | 101 | 0.0 | 9.7 | 0.00 | 0.00 | 0.00 | 60 | 1017.4 |
| 20260504230041 | 24 | 125 | 4.8 | 6.4 | 0.00 | 0.00 | 0.00 | 59 | 1017.6 |
| 20260504225537 | 23 | 98 | 4.8 | 12.9 | 0.00 | 0.00 | 0.00 | 60 | 1017.5 |
| 20260504225034 | 25 | 114 | 6.4 | 8.0 | 0.00 | 0.00 | 0.00 | 59 | 1017.6 |
| 20260504224531 | 23 | 93 | 6.4 | 12.9 | 0.00 | 0.00 | 0.00 | 59 | 1017.2 |
| 20260504224028 | 24 | 120 | 8.0 | 9.7 | 0.00 | 0.00 | 0.00 | 58 | 1017.4 |
| 20260504223525 | 25 | 90 | 1.6 | 9.7 | 0.00 | 0.00 | 0.00 | 58 | 1017.2 |
| 20260504223021 | 24 | 114 | 8.0 | 17.7 | 0.00 | 0.00 | 0.00 | 58 | 1017.8 |
| 20260504222518 | 25 | 81 | 3.2 | 8.0 | 0.00 | 0.00 | 0.00 | 57 | 1017.3 |
| 20260504222015 | 25 | 90 | 3.2 | 9.7 | 0.00 | 0.00 | 0.00 | 57 | 1017.4 |
| 20260504221512 | 26 | 94 | 4.8 | 8.0 | 0.00 | 0.00 | 0.00 | 56 | 1017.7 |
| 20260504221009 | 26 | 142 | 9.7 | 9.7 | 0.00 | 0.00 | 0.00 | 54 | 1017.5 |
| 20260504220506 | 25 | 124 | 3.2 | 6.4 | 0.00 | 0.00 | 0.00 | 56 | 1017.5 |
| 20260504220003 | 25 | 49 | 4.8 | 11.3 | 0.00 | 0.00 | 0.00 | 57 | 1017.5 |
| 20260504215459 | 25 | 90 | 3.2 | 6.4 | 0.00 | 0.00 | 0.00 | 59 | 1017.4 |
| 20260504214956 | 25 | 78 | 6.4 | 8.0 | 0.00 | 0.00 | 0.00 | 56 | 1017.5 |
| 20260504214452 | 26 | 66 | 6.4 | 9.7 | 0.00 | 0.00 | 0.00 | 54 | 1017.5 |
| 20260504213949 | 26 | 98 | 4.8 | 8.0 | 0.00 | 0.00 | 0.00 | 57 | 1017.4 |
| 20260504213445 | 26 | 105 | 4.8 | 9.7 | 0.00 | 0.00 | 0.00 | 55 | 1017.5 |
| 20260504212943 | 27 | 99 | 3.2 | 6.4 | 0.00 | 0.00 | 0.00 | 54 | 1017.7 |
| 20260504212438 | 26 | 133 | 8.0 | 9.7 | 0.00 | 0.00 | 0.00 | 56 | 1017.7 |
| 20260504211936 | 25 | 70 | 6.4 | 9.7 | 0.00 | 0.00 | 0.00 | 55 | 1017.9 |
| 20260504211432 | 25 | 119 | 3.2 | 14.5 | 0.00 | 0.00 | 0.00 | 57 | 1017.6 |
| 20260504210930 | 25 | 133 | 4.8 | 9.7 | 0.00 | 0.00 | 0.00 | 55 | 1017.8 |
| 20260504210426 | 26 | 63 | 1.6 | 14.5 | 0.00 | 0.00 | 0.00 | 54 | 1017.6 |
| 20260504205924 | 24 | 140 | 4.8 | 12.9 | 0.00 | 0.00 | 0.00 | 56 | 1017.9 |
| 20260504205421 | 25 | 139 | 3.2 | 11.3 | 0.00 | 0.00 | 0.00 | 55 | 1018.0 |
| 20260504204919 | 24 | 106 | 0.0 | 11.3 | 0.00 | 0.00 | 0.00 | 56 | 1017.9 |
| 20260504204417 | 25 | 90 | 4.8 | 16.1 | 0.00 | 0.00 | 0.00 | 55 | 1017.9 |
| 20260504203917 | 25 | 65 | 11.3 | 11.3 | 0.00 | 0.00 | 0.00 | 53 | 1017.9 |
| 20260504203414 | 24 | 101 | 4.8 | 14.5 | 0.00 | 0.00 | 0.00 | 54 | 1018.0 |
| 20260504202909 | 25 | 90 | 6.4 | 11.3 | 0.00 | 0.00 | 0.00 | 52 | 1018.1 |
| 20260504202406 | 25 | 144 | 4.8 | 9.7 | 0.00 | 0.00 | 0.00 | 53 | 1017.7 |
| 20260504201903 | 25 | 82 | 4.8 | 12.9 | 0.00 | 0.00 | 0.00 | 53 | 1017.9 |
| 20260504201400 | 25 | 84 | 4.8 | 11.3 | 0.00 | 0.00 | 0.00 | 52 | 1018.2 |
| 20260504200857 | 26 | 90 | 3.2 | 11.3 | 0.00 | 0.00 | 0.00 | 51 | 1018.2 |
| 20260504200354 | 26 | 76 | 11.3 | 12.9 | 0.00 | 0.00 | 0.00 | 50 | 1018.0 |
| 20260504195851 | 26 | 68 | 3.2 | 9.7 | 0.00 | 0.00 | 0.00 | 48 | 1018.2 |
| 20260504195346 | 26 | 61 | 4.8 | 12.9 | 0.00 | 0.00 | 0.00 | 50 | 1018.1 |
| 20260504194843 | 26 | 109 | 4.8 | 16.1 | 0.00 | 0.00 | 0.00 | 49 | 1018.0 |
| 20260504194339 | 26 | 80 | 6.4 | 11.3 | 0.00 | 0.00 | 0.00 | 49 | 1018.1 |
| 20260504193835 | 26 | 80 | 6.4 | 17.7 | 0.00 | 0.00 | 0.00 | 48 | 1018.1 |
| 20260504193333 | 26 | 68 | 6.4 | 16.1 | 0.00 | 0.00 | 0.00 | 49 | 1018.3 |
| 20260504192831 | 26 | 67 | 4.8 | 14.5 | 0.00 | 0.00 | 0.00 | 48 | 1018.5 |
| 20260504192329 | 26 | 54 | 9.7 | 12.9 | 0.00 | 0.00 | 0.00 | 47 | 1018.3 |
| 20260504191827 | 26 | 64 | 6.4 | 9.7 | 0.00 | 0.00 | 0.00 | 46 | 1018.7 |
| 20260504191324 | 26 | 74 | 4.8 | 17.7 | 0.00 | 0.00 | 0.00 | 47 | 1018.5 |
| 20260504190820 | 27 | 62 | 14.5 | 14.5 | 0.00 | 0.00 | 0.00 | 46 | 1018.5 |
| 20260504190316 | 27 | 69 | 6.4 | 9.7 | 0.00 | 0.00 | 0.00 | 47 | 1018.4 |
| 20260504185813 | 26 | 109 | 1.6 | 12.9 | 0.00 | 0.00 | 0.00 | 48 | 1018.8 |
| 20260504185310 | 26 | 74 | 14.5 | 14.5 | 0.00 | 0.00 | 0.00 | 46 | 1018.8 |
| 20260504184806 | 26 | 71 | 4.8 | 11.3 | 0.00 | 0.00 | 0.00 | 44 | 1018.6 |
| 20260504184302 | 26 | 62 | 6.4 | 11.3 | 0.00 | 0.00 | 0.00 | 45 | 1018.8 |
| 20260504183757 | 26 | 86 | 4.8 | 16.1 | 0.00 | 0.00 | 0.00 | 47 | 1019.1 |
| 20260504183254 | 26 | 72 | 6.4 | 9.7 | 0.00 | 0.00 | 0.00 | 43 | 1019.1 |
| 20260504182753 | 26 | 72 | 3.2 | 17.7 | 0.00 | 0.00 | 0.00 | 48 | 1019.2 |
| 20260504182249 | 26 | 65 | 6.4 | 9.7 | 0.00 | 0.00 | 0.00 | 44 | 1019.2 |
| 20260504181747 | 26 | 79 | 8.0 | 14.5 | 0.00 | 0.00 | 0.00 | 43 | 1019.1 |
| 20260504181244 | 26 | 84 | 3.2 | 11.3 | 0.00 | 0.00 | 0.00 | 43 | 1019.4 |
| 20260504180743 | 25 | 73 | 9.7 | 14.5 | 0.00 | 0.00 | 0.00 | 47 | 1019.2 |
| 20260504180242 | 26 | 59 | 4.8 | 11.3 | 0.00 | 0.00 | 0.00 | 45 | 1019.1 |
| 20260504175739 | 25 | 36 | 11.3 | 17.7 | 0.00 | 0.00 | 0.00 | 43 | 1019.2 |
| 20260504175235 | 26 | 65 | 3.2 | 9.7 | 0.00 | 0.00 | 0.00 | 44 | 1019.4 |
| 20260504174733 | 26 | 85 | 3.2 | 16.1 | 0.00 | 0.00 | 0.00 | 45 | 1019.4 |
| 20260504174231 | 26 | 41 | 9.7 | 9.7 | 0.00 | 0.00 | 0.00 | 42 | 1019.2 |
| 20260504173727 | 25 | 82 | 8.0 | 12.9 | 0.00 | 0.00 | 0.00 | 44 | 1019.4 |
| 20260504173224 | 25 | 75 | 4.8 | 14.5 | 0.00 | 0.00 | 0.00 | 44 | 1019.6 |
| 20260504172721 | 25 | 64 | 8.0 | 14.5 | 0.00 | 0.00 | 0.00 | 44 | 1019.5 |
| 20260504172217 | 25 | 49 | 8.0 | 12.9 | 0.00 | 0.00 | 0.00 | 43 | 1019.9 |
| 20260504171714 | 25 | 64 | 0.0 | 9.7 | 0.00 | 0.00 | 0.00 | 44 | 1019.6 |
| 20260504171211 | 25 | 66 | 8.0 | 8.0 | 0.00 | 0.00 | 0.00 | 43 | 1019.8 |
| 20260504170708 | 24 | 54 | 11.3 | 14.5 | 0.00 | 0.00 | 0.00 | 43 | 1020.0 |
| 20260504170206 | 25 | 35 | 8.0 | 14.5 | 0.00 | 0.00 | 0.00 | 40 | 1020.0 |
| 20260504160124 | 25 | 52 | 4.8 | 9.7 | 0.00 | 0.00 | 0.00 | 39 | 1020.3 |
| 20260504151051 | 23 | 60 | 3.2 | 8.0 | 0.00 | 0.00 | 0.00 | 44 | 1020.4 |
| 20260504150548 | 23 | 90 | 1.6 | 8.0 | 0.00 | 0.00 | 0.00 | 45 | 1020.1 |
| 20260504141014 | 22 | 82 | 1.6 | 3.2 | 0.00 | 0.00 | 0.00 | 48 | 1020.5 |
| 20260504140511 | 22 | 83 | 0.0 | 3.2 | 0.00 | 0.00 | 0.00 | 48 | 1020.4 |
| 20260504130435 | 20 | 90 | 0.0 | 3.2 | 0.00 | 0.00 | 0.00 | 67 | 1020.5 |
| 20260504110322 | 13 | 99 | 0.0 | 0.0 | 0.00 | 0.00 | 0.00 | 92 | 1019.5 |
| 20260504100240 | 13 | 90 | 0.0 | 0.0 | 0.00 | 0.00 | 0.00 | 92 | 1019.0 |
| 20260504081633 | 14 | 90 | 1.6 | 3.2 | 0.00 | 0.00 | 0.00 | 90 | 1019.3 |
| 20260504081129 | 13 | 66 | 0.0 | 0.0 | 0.00 | 0.00 | 0.00 | 90 | 1019.6 |
| 20260504080626 | 14 | 66 | 0.0 | 3.2 | 0.00 | 0.00 | 0.00 | 90 | 1019.4 |
| 20260504080122 | 13 | 74 | 0.0 | 0.0 | 0.00 | 0.00 | 0.00 | 89 | 1019.4 |